Terminal Aerodrome Forecast
Issued by NWS

Home | Current Version | Previous Version | Text Only | Print | Product List | Glossary On
Versions: 1 2 3 4 5 6 7 8 9 10 11 12 13 14 15 16 17 18 19 20 21 22 23 24 25 26
000
FTPA31 PHFO 190000 AAA
TAFLNY
TAF AMD
PHNY 190044Z 1901/1924 29005KT P6SM VCSH BKN025
     FM190500 VRB05KT P6SM SCT025 BKN060
     FM192000 29007KT P6SM SCT025 BKN035
      AMD NOT SKED=

USA.gov is the U.S. government's official web portal to all federal, state and local government web resources and services.